Location: Bow
(51.5261°N, 0.0167°W)
Time: 15:23:50
(UTC+00:00)

Cosmos 1655 Rocket - Pass Details

Date: 18 September 2020
Orbit: 971 x 1005 km, 82.9° (Epoch: 30 October)

Event Time Altitude Azimuth Distance (km) Brightness Sun altitude
Rises 21:03:15 0° 350° (N) 3,686 7.8 -26.0°
Reaches altitude 10° 21:05:46 10° 353° (N) 2,737 6.9 -26.3°
Maximum altitude 21:12:03 73° 78° (ENE) 1,028 3.9 -27.0°
Enters shadow 21:12:33 69° 114° (ESE) 1,047 3.9 -27.0°
